STARLINK-34065, 63813

Orbit data source: Space-Track

STARLINK-34065, 63813 is a payload satellite owned by SpaceX/Seattle (US) in LEO that was launched on Sun, 04 May 2025 UTC via an FALCON 9 launch vehicle from the Air Force Eastern Test Range (AFETR). Payload-class satellites include a variety of spacecraft equipped with specific instruments for various scientific and technological missions. These include communications satellites like Starlink; space stations such as the ISS; scientific satellites like the Hubble; Earth observation satellites from companies like Planet Labs, Umbra, and HawkEye 360; GPS; miniature CubeSats for education and research; and military/defense satellites.

Loading next visibility...
Identifier
63813, 2025-092K
Orbit
LEO
Country
Flag of USUS
Related business
Manufacturer
SpaceX/Seattle
Mission
Operational Commercial Communications
Bus & Motor
STARLINK V2MO, Unknown motor
Mass
575 kg wet, ~530 kg dry
Launch date (UTC)
2025-05-04 (5 months ago)
Launch vehicle
FALCON 9
Launch site
Air Force Eastern Test Range (AFETR)
Object type
Payload
Rocket body
Debris
Shape & HBR
Box + 1 Pan, 14.5 m
Radar Cross Section
41.120 m², Large (>1 m²)

Expand to show TLE details & history
Last TLE update: 23 hours ago

TLE from 23 hours ago
0 STARLINK-34065
1 63813U 25092K   25260.51444548  .00021627  00000-0  79281-3 0  9997
2 63813  43.0070  66.7016 0002504 273.5863  86.4702 15.27592024 22118
Epoch: 2025-09-17T12:20Z
TLE epoch observation values (Epoch: 2025-09-17T12:20:48.089Z)
Latitude
-0.00004°
Longitude
-115.18812°
Altitude
482.684 km
Speed
7.626 km/s
True Right ascension
04h 26m 48s
True Declination
0° 00' 00"
Sunlit
Object was in daylight at epoch
Visualization orbit readout
Latitude
Unknown
Longitude
Unknown
Altitude
Unknown
Speed
Unknown
Apparent Right ascension
Unknown
Apparent Declination
Unknown
Sunlit
N/A
Visualization observer readout
Local Sidereal Time
04:01:41
Azimuth
Unknown
Elevation
Unknown
Doppler factor
Unknown
Orbital elements
Apogee altitude
486.676 km
Perigee altitude
483.239 km
Semi-major axis
6,863.094 km
Eccentricity
0.00025
Inclination
43.007°
RAAN
66.7016°
Arg. of periapsis
273.5863°
True anomaly
86.49884°
Mean anomaly
86.4702°
Eccentric anomaly
86.48452°
Mean motion
3.81736 °/min
Orbital period
94.31 mins
BSTAR
0.00079281
Loading maneuver chart data...
Computing Atmospheric mass density...
Loading historical data...
Loading historical data...
Loading historical data...
Loading historical data...
Loading historical data...
Loading historical data...
Loading historical data...

Documentation

Showing up to 5 results
|